Regional Weather Roundup
Issued by NWS

Home | Current Version | Previous Version | Graphics & Text | Print | Product List | Glossary On
Versions: 1 2 3 4 5 6 7 8 9 10 11 12 13 14 15 16 17 18 19 20 21 22 23 24 25 26 27
000
ASUS45 KBOI 240210
RWRID

IDAHO REGIONAL WEATHER ROUNDUP
NATIONAL WEATHER SERVICE BOISE ID
800 PM MDT WED MAY 23 2018

NOTE: "FAIR" INDICATES FEW OR NO CLOUDS BELOW 12000 FEET
WITH NO SIGNIFICANT WEATHER AND/OR OBSTRUCTIONS TO VISIBILITY

IDZ012-014-240300-
SOUTHWEST IDAHO


CITY           SKY/WX    TMP DP  RH WIND       PRES   REMARKS
BOISE          RAIN      65  59  81 N3        29.86R
CALDWELL       CLOUDY    73  52  47 SE8       29.82F
MOUNTAIN HOME  CLOUDY    72  51  48 NW13      29.84R
$$

IDZ016-017-240300-
SOUTHCENTRAL IDAHO


CITY           SKY/WX    TMP DP  RH WIND       PRES   REMARKS
BURLEY         PTCLDY    69  48  47 S17G23    29.91R
JEROME         MOCLDY    68  49  50 SW9       29.92R
TWIN FALLS     PTCLDY    64  49  57 S9        29.91R
$$

IDZ019>023-240300-
SOUTHEAST IDAHO


CITY           SKY/WX    TMP DP  RH WIND       PRES   REMARKS
IDAHO FALLS    CLOUDY    57  52  83 SE9       29.99S
POCATELLO      MOCLDY    66  46  48 SW5       29.96R
REXBURG        MOCLDY    56  48  74 SE6       29.99R
$$

IDZ006-010-011-018-031-032-240300-
CENTRAL IDAHO MOUNTAINS


CITY           SKY/WX    TMP DP  RH WIND       PRES   REMARKS
MCCALL         MOSUNNY   63  46  54 CALM      29.90S
HAILEY         MOCLDY    61  52  72 CALM      29.98F
STANLEY          N/A     58  41  53 VRB6      30.01R
SALMON         CLOUDY    65  51  60 NW5       29.88R
CHALLIS        CLOUDY    61  52  72 CALM      29.95R
$$

IDZ002-004-006-007-026-240300-
NORTHERN IDAHO


CITY           SKY/WX    TMP DP  RH WIND       PRES   REMARKS
LEWISTON       SUNNY     77  54  44 SE9       29.72S
LOWELL           N/A     59  59 100 CALM      29.79F
COEUR D`ALENE  CLOUDY    71  50  47 SE9       29.78R
MULLAN PASS    CLOUDY    50  44  80 SE5       29.94R
$$




USA.gov is the U.S. government's official web portal to all federal, state and local government web resources and services.